カタログに戻る

STARLINK-30461

運用中通信VLEO
NORAD 57933·PAYLOAD·🇺🇸 United States

打ち上げ Sep 24, 2023 から Cape Canaveral Space Force Station

Loading…

次のパス (今後24時間)

TLE

最新Source: CelesTrak SupGP

元期: Sep 14, 2026, 22:08 UTC

1 57933C 23147W   26257.92270833 -.00023914  00000+0 -86619-3 0  2570
2 57933  43.0027 336.1395 0001487 271.4728  72.9973 15.27588948    11

AllMySatでSTARLINK-30461をリアルタイム追跡

Download on the App Store